Regional Weather Roundup
Issued by NWS

Home | Current Version | Previous Version | Graphics & Text | Print | Product List | Glossary On
Versions: 1 2 3 4 5 6 7 8 9 10 11 12 13 14 15 16 17 18 19 20 21 22 23 24 25 26 27 28 29 30 31 32 33 34 35 36 37 38 39 40 41 42 43 44 45 46 47 48 49 50
000
ASUS45 KABQ 260001
RWRNM
NEW MEXICO REGIONAL WEATHER ROUNDUP
NATIONAL WEATHER SERVICE ALBUQUERQUE NM
600 PM MDT WED MAY 25 2016

NOTE: "FAIR" MEANS FEW OR NO CLOUDS BELOW 12,000 FEET AGL WITH NO
       SIGNIFICANT WEATHER OR OBSTRUCTIONS TO VISION.

      THIS PRODUCT IS RELEASED AS TWO VERSIONS.  ONE VERSION NEAR
      THE TOP OF THE HOUR CONTAINING PRELIMINARY DATA FROM ALBUQUERQUE
      AND OTHER STATIONS.  A FINAL VERSION WITH ADDITIONAL DATA IS
      ISSUED ABOUT 10 MINUTES AFTER THE HOUR.

NMZ501-503-504-510>518-260100-
NORTHWEST PLATEAU/NORTHCENTRAL MOUNTAINS

CITY           SKY/WX    TMP DP  RH WIND       PRES   REMARKS
FARMINGTON     FAIR      73   6   7 S13       29.95F
6HR MIN TEMP:  68; 6HR MAX TEMP:  77;

SANTA FE       FAIR      75  15  10 W15G21    30.04F
6HR MIN TEMP:  69; 6HR MAX TEMP:  76;

TAOS           FAIR      72  12  10 SW16G23   30.08S

$$
NMZ402-403-502-505>509-260100-
WESTCENTRAL MOUNTAINS/SOUTHWEST MOUNTAINS

CITY           SKY/WX    TMP DP  RH WIND       PRES   REMARKS
GALLUP         FAIR      71  17  12 SW26G37   30.04S
6HR MIN TEMP:  65; 6HR MAX TEMP:  74;

GRANTS         FAIR      73  15  11 SW16      30.05S
SILVER CITY      N/A     81  10   7 SW25G43   30.04F

$$
NMZ407-409-411-412-260100-
SOUTHERN DESERTS

CITY           SKY/WX    TMP DP  RH WIND       PRES   REMARKS
LORDSBURG      FAIR      84  14   7 W22G31    29.95F
DEMING         FAIR      86  12   6 W21G33    29.96F
6HR MIN TEMP:  81; 6HR MAX TEMP:  89;

HOLLOMAN AFB   FAIR      89  19   8 SW23      29.93F
ALAMOGORDO     FAIR      86  21   9 SW9       29.95F
T OR C         FAIR      84  13   7 SW17G31   29.95F
6HR MIN TEMP:  75; 6HR MAX TEMP:  86;


$$
NMZ519>523-260100-
CENTRAL VALLEYS/CENTRAL HIGHLANDS

CITY           SKY/WX    TMP DP  RH WIND       PRES   REMARKS
ALBUQUERQUE    PTSUNNY   79  16   9 S20       29.95F
6HR MIN TEMP:  71; 6HR MAX TEMP:  79;

DOUBLE EAGLE   PTSUNNY   73  21  14 VRB6      30.00F
CLINES CORNERS FAIR      71  16  12 W15       30.09F
6HR MIN TEMP:  66; 6HR MAX TEMP:  73;

BELEN          FAIR      84  11   6 S26G33    29.95F
6HR MIN TEMP:  73; 6HR MAX TEMP:  85;

SOCORRO        NOT AVBL

$$
NMZ524>526-539-540-260100-
SOUTHCENTRAL MOUNTAINS

CITY           SKY/WX    TMP DP  RH WIND       PRES   REMARKS
RUIDOSO        NOT AVBL

$$
NMZ527>531-260100-
NORTHEAST HIGHLANDS/NORTHEAST PLAINS

CITY           SKY/WX    TMP DP  RH WIND       PRES   REMARKS
LAS VEGAS      FAIR      71  13  10 SW18G31   30.08S
6HR MIN TEMP:  70; 6HR MAX TEMP:  74;

RATON          FAIR      76  13   9 S12       29.98F
6HR MIN TEMP:  72; 6HR MAX TEMP:  78;

CLAYTON        FAIR      82  16   8 S20G30    29.93F
6HR MIN TEMP:  78; 6HR MAX TEMP:  84;


$$
NMZ532>537-260100-
EASTCENTRAL PLAINS

CITY           SKY/WX    TMP DP  RH WIND       PRES   REMARKS
TUCUMCARI      FAIR      89  10   5 SW18      29.88F
6HR MIN TEMP:  85; 6HR MAX TEMP:  91;

CANNON AFB     NOT AVBL
CLOVIS AIRPORT FAIR      88  27  11 SW17      29.94F

$$
NMZ028-029-538-260100-
SOUTHEAST PLAINS

CITY           SKY/WX    TMP DP  RH WIND       PRES   REMARKS
ROSWELL        FAIR      92  20   7 SW26G32   29.90F
6HR MIN TEMP:  88; 6HR MAX TEMP:  96;

ARTESIA        FAIR      91  25   9 W20G30    29.92F
CARLSBAD       FAIR      94  22   7 SW15      29.89F
6HR MIN TEMP:  90; 6HR MAX TEMP:  98;

HOBBS          SUNNY     93  19   7 S16G23    29.94F


$$




USA.gov is the U.S. government's official web portal to all federal, state and local government web resources and services.